ATLAS 5 CENTAUR DEB, 44643

Orbit data source: Space-Track

ATLAS 5 CENTAUR DEB, 44643 is space debris in HEO originally from a launch on Wed, 17 Oct 2018 UTC launched from the Air Force Eastern Test Range (AFETR). Debris objects in space refer to the collection of defunct objects orbiting the Earth. Examples of debris include non-operational satellites, rocket bodies, and fragments generated from explosions, collisions, or faulty payload assembly.

Loading next visibility...
Identifier
44643, 2018-079D
Orbit
HEO
Country
Flag of USUS
Related business
Flag of USUnited Launch Alliance/Lockheed Martin (US)
Manufacturer
ULA Decatur
Mission
Spacecraft
Bus & Motor
Unknown
Mass
Unknown
Launch date (UTC)
2018-10-17 (8 years ago)
Launch vehicle
Unknown
Launch site
Air Force Eastern Test Range (AFETR)
Object type
Payload
Rocket body
Debris
Shape & HBR
Unknown shape, 1.1 m
Radar Cross Section
RCS unknown

Expand to show TLE details & history
Last TLE update: 1 day ago

TLE from 1 day ago
0 ATLAS 5 CENTAUR DEB
1 44643U 18079D   26126.85049409 -.00000132  00000-0  00000-0 0  9999
2 44643  13.8898  27.0647 4769470 323.0287  12.1648  1.81999117 46499
Epoch: 2026-05-06T20:24Z
TLE epoch observation values (Epoch: 2026-05-06T20:24:42.689Z)
Latitude
0.00002°
Longitude
-143.85801°
Altitude
9,479.945 km
Speed
6.017 km/s
True Right ascension
01h 48m 05s
True Declination
0° 00' 00"
Sunlit
Object was in daylight at epoch
Visualization orbit readout
Latitude
Unknown
Longitude
Unknown
Altitude
Unknown
Speed
Unknown
Apparent Right ascension
Unknown
Apparent Declination
Unknown
Sunlit
N/A
Visualization observer readout
Local Sidereal Time
15:00:31
Azimuth
Unknown
Elevation
Unknown
Doppler factor
Unknown
Orbital elements
Apogee altitude
35,477.396 km
Perigee altitude
8,444.78 km
Semi-major axis
28,339.225 km
Eccentricity
0.47695
Inclination
13.8898°
RAAN
27.0647°
Arg. of periapsis
323.0287°
True anomaly
37.30784°
Mean anomaly
12.1648°
Eccentric anomaly
22.7187°
Mean motion
0.45495 °/min
Orbital period
791.3 mins
BSTAR
0
Loading maneuver chart data...
Computing Atmospheric mass density...

Documentation

Showing up to 5 results
|